Home   Weather   Tweed Heads   Past weeks
Flag for Australia

Past Weather in Tweed Heads, New South Wales, Australia — Yesterday and Last 2 Weeks

Now
59 °F

Passing clouds.


Feels Like: 60 °F
Forecast: 71 / 63 °F
Wind: 3 mph from Southwest

Location: Coolangatta Aws Airport

Current Time: May 23, 2019 at 1:06:09 am

Latest Report: May 23, 2019 at 12:00 am


Visibility: N/A

Pressure: 30.30 "Hg

Humidity: 94%

Dew Point: 57 °F

Location of Tweed HeadsLocation

Past Weather in Tweed Heads — Graph

°F

Tweed Heads Temperature Yesterday

Maximum temperature yesterday: 73 °F (at 11:30 am)
Minimum temperature yesterday: 57 °F (at 4:00 am)
Average temperature yesterday: 64 °F

High & Low Weather Summary for the Past Weeks

 TemperatureHumidityPressure
High81 °F (May 8, 2:30 pm)100% (May 8, 3:00 am)30.36 "Hg (May 8, 3:00 am)
Low48 °F (May 9, 5:00 am)27% (May 11, 2:00 pm)29.92 "Hg (May 8, 1:30 pm)
Average66 °F75%30.22 "Hg
* Reported May 7 11:00 pm — May 22 11:30 pm, Tweed Heads. Weather by CustomWeather, © 2019

Note: Actual official high and low records may vary slightly from our data, if they occured in-between our weather recording intervals... More about our weather records

Advertising

Tweed Heads Weather History for the Previous 24 Hours

Scroll right to see more
 ConditionsComfort  
Time TempWeatherWind HumidityBarometerVisibility
11:30 pm
Wed, May 22
59 °FClear.3 mph94%30.30 "HgN/A
11:00 pm59 °FClear.3 mph94%30.30 "HgN/A
10:30 pm59 °FPassing clouds.6 mph100%30.30 "HgN/A
10:00 pm59 °FPassing clouds.3 mph94%30.30 "HgN/A
9:30 pm59 °FClear.3 mph94%30.30 "HgN/A
9:00 pm59 °FPassing clouds.2 mph94%30.30 "HgN/A
8:30 pm63 °FClear.5 mph88%30.30 "HgN/A
8:00 pm63 °FPassing clouds.6 mph88%30.30 "HgN/A
7:30 pm64 °FPassing clouds.3 mph88%30.30 "HgN/A
7:00 pm64 °FPassing clouds.5 mph83%30.30 "HgN/A
6:30 pm66 °FClear.5 mph78%30.30 "HgN/A
6:00 pm66 °FPassing clouds.6 mph83%30.30 "HgN/A
5:30 pm68 °FPassing clouds.6 mph78%30.30 "HgN/A
5:00 pm70 °FDrizzle. Overcast.6 mph73%30.30 "HgN/A
4:30 pm70 °FMore clouds than sun.8 mph73%30.27 "HgN/A
4:00 pm72 °FOvercast.8 mph69%30.27 "HgN/A
3:30 pm72 °FOvercast.10 mph69%30.27 "HgN/A
3:00 pm72 °FOvercast.10 mph65%30.27 "HgN/A
2:30 pm72 °FOvercast.12 mph65%30.27 "HgN/A
2:00 pm73 °FOvercast.13 mph61%30.27 "HgN/A
1:30 pm73 °FMostly cloudy.12 mph57%30.27 "HgN/A
1:00 pm73 °FMore clouds than sun.10 mph57%30.30 "HgN/A
12:30 pm72 °FCloudy.8 mph61%30.30 "HgN/A
12:00 pm73 °FOvercast.7 mph61%30.30 "HgN/A
11:30 am73 °FOvercast.9 mph61%30.33 "HgN/A
11:00 am72 °FOvercast.8 mph65%30.33 "HgN/A
10:00 am72 °FOvercast.8 mph69%30.36 "HgN/A
9:30 am70 °FPartly sunny.8 mph73%30.36 "HgN/A
9:00 am66 °FBroken clouds.7 mph83%30.36 "HgN/A
8:30 am64 °FScattered clouds.3 mph88%30.33 "HgN/A
8:00 am64 °FSunny.3 mph94%30.33 "HgN/A
7:30 am61 °FSunny.3 mph100%30.33 "HgN/A
7:00 am59 °FSunny.3 mph100%30.33 "HgN/A
6:30 am59 °FSunny.5 mph94%30.30 "HgN/A
6:00 am57 °FClear.5 mph100%30.30 "HgN/A
5:30 am57 °FClear.5 mph100%30.30 "HgN/A
5:00 am57 °FClear.5 mph100%30.30 "HgN/A
4:30 am59 °FClear.5 mph94%30.30 "HgN/A
4:00 am57 °FClear.3 mph100%30.27 "HgN/A
3:30 am59 °FClear.5 mph94%30.30 "HgN/A
3:00 am59 °FPassing clouds.3 mph100%30.30 "HgN/A
2:30 am61 °FMostly cloudy.3 mph94%30.30 "HgN/A
2:00 am59 °FPassing clouds.2 mph100%30.30 "HgN/A
1:30 am59 °FClear.2 mph100%30.30 "HgN/A
1:00 am59 °FClear.3 mph94%30.30 "HgN/A
Weather by CustomWeather, © 2019

See weather overview